SCP
0 0 -0 -0 0 0 0 0 0 0 0 0 0 0 0 0 0 0 0 0 0 0 0 0 0 0 0 0 0 0 0 0 0 0 0 0 0 0 0 0 0 0 0
0 0 0 0 0 0 0 0 0 0 0 0 0 0 0 0 0 0 0 0 0 0 0 0 0 0 0 0 0 0 0 0 0 0 0 0 0 0 0 0 0 0 0
0 0 0 0 0 0 0 0 0 0 0 0 0 0 0 0 0 0 0 0 0 0 0 0 0 0 0 0 0 0 0 0 0 0 0 0 0 0 0 0 0 0 0
0 0 0 0 0 0 0 0 0 0 0 0 0 0 0 0 0 0 0 0 0 0 0 0 0 0 0 0 0 0 0 0 0 0 0 0 0 0 0 0 0 0 0
0 0 0 0 0 0 0 0 0 0 0 0 0 0 1 0 0 0 0 0 0 0 0 0 0 0 0 0 0 0 0 0 0 0 0 0 0 0 0 0 0 0 0
0 0 0 0 0 0 0 0 0 0 0 0 0 0 0 0 1 0 0 0 0 0 0 0 0 0 0 0 0 0 0 0 0 0 0 0 0 0 0 0 0 0 0
0 0 0 0 0 0 0 0 0 0 0 0 0 0 0 0 0 1 0 0 0 0 0 0 0 0 0 0 0 0 0 0 0 0 0 0 0 0 0 0 0 0 0
0 0 0 0 0 0 0 0 0 0 0 0 0 0 0 0 0 0 0 1 0 0 0 0 0 0 0 0 0 0 0 0 0 0 0 0 0 0 0 0 0 0 0
0 0 0 0 0 0 0 0 0 0 0 0 0 0 0 0 0 0 0 0 1 0 0 0 0 0 0 0 0 0 0 0 0 0 0 0 0 0 0 0 0 0 0
0 0 0 0 0 0 0 0 0 0 0 0 0 0 0 0 0 0 0 0 0 0 0 0 0 0 0 0 0 0 0 0 0 0 0 0 0 0 0 0 0 0 0
0 0 0 0 0 0 0 0 0 0 0 0 0 0 0 0 0 0 0 0 0 0 0 0 0 0 0 0 0 0 0 0 0 0 0 0 0 0 0 0 0 0 0
0 0 0 0 0 0 0 0 0 0 0 0 0 0 0 0 0 0 0 0 0 0 0 0 0 0 0 0 0 0 0 0 0 0 0 0 0 0 0 0 0 0 0
0 0 0 0 0 0 0 0 0 0 0 0 0 0 0 0 0 0 0 0 0 0 0 0 0 0 0 0 0 0 0 0 0 0 0 0 0 0 0 0 0 0 0
0 0 0 0 0 0 0 0 0 0 0 0 0 0 0 0 0 0 0 0 0 0 0 0 0 0 0 0 0 0 0 0 0 0 0 0 0 0 0 0 0 0 0
0 0 0 0 0 0 0 0 0 0 0 0 0 0 0 0 0 0 0 0 0 0 0 0 0 0 0 0 0 0 0 0 0 0 0 0 0 0 0 0 0 0 0
0 0 0 0 0 0 0 0 0 0 0 0 0 0 0 0 0 0 0 0 0 0 0 0 0 0 0 0 0 0 0 0 0 0 0 0 0 0 0 0 0 0 0
0 0 0 0 0 0 0 0 0 0 0 0 0 0 0 0 0 0 0 0 0 0 0 0 0 0 0 0 0 0 0 0 0 0 0 0 0 0 0 0 0 0 0
0 0 0 0 0 0 0 0 0 0 0 0 0 0 0 0 0 0 0 0 0 0 0 0 0 0 0 0 0 0 0 0 0 0 0 0 0 0 0 0 0 0 0
0 0 0 0 0 0 0 0 0 0 0 0 0 0 0 0 0 0 0 0 0 0 0 0 0 0 0 0 0 0 0 0 0 0 0 0 0 0 0 0 0 0 0
0 0 0 0 0 0 0 0 0 0 0 0 0 0 0 0 0 0 0 0 0 0 0 0 0 0 0 0 0 0 0 0 0 0 0 0 0 0 0 0 0 0 0
0 0 0 0 0 0 0 0 0 0 0 0 0 0 0 0 0 0 0 -0 0 0 0 0 0 0 0 0 0 0 0 0 0 0 0 0 0 0 0 0 0 0 0
0 0 0 0 0 0 0 0 0 0 0 0 0 0 0 0 0 0 0 0 0 0 0 0 0 0 0 0 0 0 0 0 0 0 0 0 0 0 0 0 0 0 0
0 0 0 0 0 0 0 0 0 0 0 0 0 0 0 0 0 0 -0 -0 0 0 0 0 0 0 0 0 0 0 0 0 0 0 0 0 0 0 0 0 0 0 0
0 0 0 0 0 0 0 0 0 0 0 0 0 0 0 0 0 0 0 0 0 0 0 0 -0 0 0 0 0 0 0 0 0 0 0 0 0 0 0 0 0 0 0
0 0 0 0 0 0 0 0 0 0 0 0 0 0 0 0 0 0 0 0 0 0 0 0 -0 0 0 0 0 0 0 0 0 0 0 0 0 0 0 0 0 0 0
0 0 0 0 0 0 0 0 0 0 0 0 0 0 0 0 0 0 0 0 0 0 0 0 0 0 0 0 0 0 0 0 0 0 0 0 0 0 0 0 0 0 0
Wind_Speed_500mb
11 11 9 12 16 15 16 20 21 20 21 22 23 25 27 26 24 21 21 21 22 22 16 23 21 23 29 37 24 19 15 14 19 22 22 17 15 18 21 20 18 14 12
6 7 9 15 20 19 19 23 22 26 26 25 28 30 30 31 31 29 26 27 28 28 27 24 23 23 24 27 28 27 25 23 28 31 24 19 12 15 20 24 16 15 14
4 7 8 11 16 22 26 27 29 29 29 30 32 34 34 34 35 35 32 30 31 31 30 31 31 33 32 33 35 34 29 32 36 33 27 22 10 15 16 20 17 15 19
8 10 14 17 20 23 27 32 35 35 38 36 35 35 37 38 38 38 38 37 35 34 33 32 30 30 30 28 21 34 37 32 38 36 32 24 16 19 22 24 22 16 16
12 16 22 27 31 34 35 37 40 42 45 44 44 45 40 41 42 42 43 43 41 38 36 33 31 29 36 27 22 30 32 31 39 37 34 29 24 28 23 25 21 18 15
16 22 29 36 40 42 42 43 47 50 52 49 50 50 54 51 47 46 46 46 45 42 39 34 32 30 25 28 28 24 33 27 31 30 31 32 30 27 23 22 18 15 15
23 30 35 37 38 40 41 43 44 48 51 55 56 55 59 60 60 54 50 49 49 48 44 38 39 33 32 34 26 29 27 29 35 32 33 33 33 28 23 21 18 16 17
29 31 30 29 30 34 37 39 41 42 44 49 56 64 65 65 69 68 58 55 53 53 49 46 42 38 39 37 32 31 29 38 38 33 33 34 29 27 22 21 19 19 19
27 25 25 30 35 37 39 41 42 45 50 51 51 60 65 71 70 64 66 62 57 55 52 51 46 45 43 34 35 31 37 39 37 34 31 34 33 22 20 17 18 18 19
24 24 28 33 37 38 41 43 46 48 48 48 56 60 59 69 73 73 66 66 59 59 56 54 50 47 44 36 36 37 43 39 38 34 33 34 29 22 20 23 18 16 16
19 24 30 36 40 44 48 49 53 52 54 55 51 55 58 56 66 70 71 66 67 63 57 57 54 52 40 35 39 44 47 41 38 35 28 26 23 17 19 20 17 15 13
21 25 34 41 44 48 52 56 58 58 56 53 53 54 55 51 56 63 66 63 53 66 59 57 58 58 44 34 48 47 49 43 38 34 28 22 21 17 17 20 15 13 13
25 29 37 44 48 53 57 62 60 57 51 40 40 42 45 48 49 53 60 54 58 59 58 60 59 46 45 36 52 49 46 46 37 32 26 28 25 20 17 18 16 14 12
27 33 41 47 51 54 60 62 59 53 40 36 36 37 41 43 43 46 49 48 56 62 68 64 58 58 47 40 49 47 46 46 40 32 28 31 22 16 20 20 17 14 10
29 35 43 50 55 59 63 65 60 42 36 39 38 37 40 41 41 41 41 46 46 52 66 71 65 37 38 41 44 43 45 47 42 35 29 25 19 14 17 19 17 14 11
30 38 46 52 56 62 65 63 44 33 35 37 34 35 35 38 39 39 38 47 47 45 68 55 51 57 50 41 43 41 41 47 42 37 32 29 18 19 22 22 17 13 16
31 41 48 54 58 62 62 47 35 31 35 36 35 34 33 36 37 36 39 46 36 59 70 60 52 60 47 41 42 41 44 47 42 39 34 29 23 21 21 16 19 23 22
33 43 48 53 57 62 55 35 32 29 37 39 37 35 34 31 33 35 39 52 33 63 66 72 69 70 44 47 47 48 47 46 42 40 35 29 22 18 13 16 22 27 23
34 43 48 52 59 58 35 32 32 31 35 33 34 29 25 28 24 34 41 52 39 63 74 71 61 66 64 56 53 51 48 47 42 41 36 28 22 17 14 13 13 22 29
33 40 46 50 52 40 33 33 35 35 36 32 35 32 27 20 18 34 45 56 37 56 66 67 59 65 71 69 56 49 46 44 43 42 36 28 21 19 15 15 11 14 26
31 37 42 48 38 36 33 39 43 41 36 30 28 28 16 12 17 31 47 48 52 56 67 72 70 74 72 70 68 56 51 45 41 38 35 31 27 24 21 16 11 14 16
29 34 40 36 34 34 37 36 36 40 34 24 28 25 5 5 13 27 56 49 47 52 58 58 74 81 74 71 72 60 43 47 41 37 30 32 29 25 20 17 18 21 18
24 30 37 29 29 31 39 39 31 31 31 34 32 19 6 7 9 23 41 54 41 53 63 56 73 69 84 70 61 65 52 26 50 38 41 35 29 23 19 22 20 15 11
17 24 31 26 27 31 37 35 31 35 34 35 32 16 10 11 15 32 42 22 63 76 57 49 63 62 80 81 72 59 44 71 50 27 37 37 30 28 29 28 21 15 10
12 16 27 29 23 25 29 29 28 28 30 32 38 37 38 36 39 51 40 54 48 67 66 52 63 84 68 82 69 67 39 63 55 66 50 46 38 32 29 25 20 14 12
9 14 20 24 20 23 23 28 23 26 27 25 28 33 28 34 37 43 46 44 52 60 45 35 53 61 68 71 70 73 62 68 61 64 55 49 39 33 29 23 19 16 11
Wind_Direction_500mb
220 229 243 267 300 298 284 275 277 281 279 266 264 259 254 251 257 247 238 236 238 231 205 198 208 207 219 202 198 183 188 188 174 171 163 168 187 191 195 195 202 185 180
218 245 260 256 274 283 285 279 279 274 274 273 262 261 253 251 249 253 240 234 233 234 229 222 220 208 204 199 222 232 240 219 188 175 171 193 205 224 209 203 206 192 161
297 297 297 284 277 277 274 277 277 274 268 267 265 258 258 252 250 247 246 238 228 229 234 236 238 243 238 232 230 234 229 211 198 197 198 218 233 174 159 168 159 155 147
269 287 298 299 293 287 281 279 277 277 270 264 258 258 255 253 249 247 245 238 231 228 234 236 232 229 230 235 226 214 215 210 206 206 207 219 197 159 152 144 144 151 149
288 301 301 298 297 296 293 288 282 276 272 266 263 260 254 249 248 245 242 241 232 229 230 229 229 215 224 230 239 201 205 207 210 211 214 209 191 168 159 153 159 162 159
294 300 302 304 303 302 298 290 282 277 276 276 272 265 262 255 245 243 240 238 232 229 224 228 222 222 214 220 218 212 213 209 196 197 192 186 178 166 158 157 159 152 153
302 307 308 310 312 310 305 300 293 288 283 276 272 266 262 257 258 244 238 236 232 228 225 220 215 222 213 219 227 213 230 189 166 168 168 166 164 151 155 155 156 158 157
305 311 318 324 326 322 320 318 313 307 295 280 271 265 260 258 252 256 243 236 232 229 224 214 215 214 212 225 209 213 190 167 168 169 166 162 152 166 166 151 146 149 154
311 321 327 329 319 315 315 312 306 299 294 290 283 271 263 258 255 256 253 241 234 228 224 217 212 208 214 226 209 215 184 172 170 170 167 164 169 163 165 164 156 151 150
314 320 322 314 317 318 316 313 309 308 304 296 287 282 272 261 256 253 254 249 236 227 223 218 214 212 214 223 211 196 179 174 171 170 172 170 174 176 164 155 149 151 148
302 310 313 316 319 321 316 316 317 312 308 302 289 283 282 269 256 251 250 249 234 225 221 217 214 209 214 220 206 187 180 176 173 175 178 182 189 186 170 165 158 148 153
293 312 319 319 322 319 320 320 320 317 314 305 294 284 274 272 262 248 246 245 244 223 219 215 213 206 202 201 193 187 182 179 177 177 181 184 178 183 191 185 169 168 159
305 319 319 320 320 322 324 323 321 318 317 312 303 296 278 269 262 253 244 238 236 224 215 212 215 201 202 195 195 186 182 181 179 177 178 172 181 176 178 189 185 176 172
307 316 319 319 320 323 323 324 322 320 318 317 314 307 293 275 262 254 243 234 232 225 218 218 217 180 191 192 193 183 180 179 176 173 165 172 178 175 173 178 174 170 162
307 316 318 320 322 325 327 328 322 321 322 318 313 310 301 288 264 246 236 219 225 225 213 208 209 178 186 185 186 182 177 174 172 167 163 179 183 167 164 160 150 145 153
308 316 318 321 325 326 330 328 324 323 325 323 321 312 297 289 283 243 225 214 210 219 201 196 200 183 183 180 178 173 169 168 167 162 165 178 168 138 135 133 128 137 133
310 317 320 323 326 327 328 325 324 325 321 318 319 321 303 288 289 235 217 206 204 208 200 199 194 186 170 168 169 161 159 163 163 164 177 174 155 139 123 123 121 121 119
310 315 321 326 326 328 326 322 320 319 319 307 309 312 311 287 287 220 208 193 178 186 193 175 179 178 164 161 156 154 155 156 162 174 176 174 158 139 127 119 114 118 118
307 316 322 328 330 330 331 329 325 330 331 326 313 299 296 284 281 208 197 189 167 173 176 171 174 166 160 161 155 153 154 157 163 168 175 171 159 146 137 145 142 135 124
308 317 326 333 337 347 343 335 345 346 344 335 328 321 295 266 254 204 191 191 146 168 177 168 170 169 163 160 159 153 151 158 162 168 169 167 162 157 167 182 189 192 162
310 319 330 340 351 351 347 354 359 358 354 348 338 343 296 242 228 201 188 201 147 167 172 172 176 166 155 159 162 152 150 158 161 159 163 172 168 169 181 182 195 199 212
312 328 337 348 354 353 356 1 359 0 360 345 353 2 352 183 199 187 179 185 163 163 180 186 181 160 161 163 162 151 132 138 149 161 167 176 174 176 182 191 177 189 192
315 339 347 359 359 359 1 5 13 9 5 7 12 13 49 115 188 186 184 177 185 176 183 189 181 189 163 168 179 168 148 138 129 143 145 164 169 177 182 176 159 173 188
329 353 358 1 354 355 12 29 13 22 24 27 24 31 72 119 140 143 156 124 156 182 189 176 189 180 168 168 170 176 174 162 154 141 142 150 163 163 162 163 164 178 185
338 351 5 7 353 2 26 37 26 35 54 38 71 65 81 96 111 134 143 164 159 159 156 153 183 174 171 173 174 164 156 178 179 154 147 151 154 156 167 160 165 171 183
331 340 358 6 10 23 41 45 35 43 69 76 75 85 89 109 132 153 158 156 165 159 165 169 169 178 186 180 184 186 184 183 187 179 161 158 163 161 169 167 177 180 196
Wind_Speed_850mb
11 11 9 12 16 15 16 20 21 20 21 22 23 25 27 26 24 21 21 21 22 22 16 23 21 23 29 37 24 19 15 14 19 22 22 17 15 18 21 20 18 14 12
6 7 9 15 20 19 19 23 22 26 26 25 28 30 30 31 31 29 26 27 28 28 27 24 23 23 24 27 28 27 25 23 28 31 24 19 12 15 20 24 16 15 14
4 7 8 11 16 22 26 27 29 29 29 30 32 34 34 34 35 35 32 30 31 31 30 31 31 33 32 33 35 34 29 32 36 33 27 22 10 15 16 20 17 15 19
8 10 14 17 20 23 27 32 35 35 38 36 35 35 37 38 38 38 38 37 35 34 33 32 30 30 30 28 21 34 37 32 38 36 32 24 16 19 22 24 22 16 16
12 16 22 27 31 34 35 37 40 42 45 44 44 45 40 41 42 42 43 43 41 38 36 33 31 29 36 27 22 30 32 31 39 37 34 29 24 28 23 25 21 18 15
16 22 29 36 40 42 42 43 47 50 52 49 50 50 54 51 47 46 46 46 45 42 39 34 32 30 25 28 28 24 33 27 31 30 31 32 30 27 23 22 18 15 15
23 30 35 37 38 40 41 43 44 48 51 55 56 55 59 60 60 54 50 49 49 48 44 38 39 33 32 34 26 29 27 29 35 32 33 33 33 28 23 21 18 16 17
29 31 30 29 30 34 37 39 41 42 44 49 56 64 65 65 69 68 58 55 53 53 49 46 42 38 39 37 32 31 29 38 38 33 33 34 29 27 22 21 19 19 19
27 25 25 30 35 37 39 41 42 45 50 51 51 60 65 71 70 64 66 62 57 55 52 51 46 45 43 34 35 31 37 39 37 34 31 34 33 22 20 17 18 18 19
24 24 28 33 37 38 41 43 46 48 48 48 56 60 59 69 73 73 66 66 59 59 56 54 50 47 44 36 36 37 43 39 38 34 33 34 29 22 20 23 18 16 16
19 24 30 36 40 44 48 49 53 52 54 55 51 55 58 56 66 70 71 66 67 63 57 57 54 52 40 35 39 44 47 41 38 35 28 26 23 17 19 20 17 15 13
21 25 34 41 44 48 52 56 58 58 56 53 53 54 55 51 56 63 66 63 53 66 59 57 58 58 44 34 48 47 49 43 38 34 28 22 21 17 17 20 15 13 13
25 29 37 44 48 53 57 62 60 57 51 40 40 42 45 48 49 53 60 54 58 59 58 60 59 46 45 36 52 49 46 46 37 32 26 28 25 20 17 18 16 14 12
27 33 41 47 51 54 60 62 59 53 40 36 36 37 41 43 43 46 49 48 56 62 68 64 58 58 47 40 49 47 46 46 40 32 28 31 22 16 20 20 17 14 10
29 35 43 50 55 59 63 65 60 42 36 39 38 37 40 41 41 41 41 46 46 52 66 71 65 37 38 41 44 43 45 47 42 35 29 25 19 14 17 19 17 14 11
30 38 46 52 56 62 65 63 44 33 35 37 34 35 35 38 39 39 38 47 47 45 68 55 51 57 50 41 43 41 41 47 42 37 32 29 18 19 22 22 17 13 16
31 41 48 54 58 62 62 47 35 31 35 36 35 34 33 36 37 36 39 46 36 59 70 60 52 60 47 41 42 41 44 47 42 39 34 29 23 21 21 16 19 23 22
33 43 48 53 57 62 55 35 32 29 37 39 37 35 34 31 33 35 39 52 33 63 66 72 69 70 44 47 47 48 47 46 42 40 35 29 22 18 13 16 22 27 23
34 43 48 52 59 58 35 32 32 31 35 33 34 29 25 28 24 34 41 52 39 63 74 71 61 66 64 56 53 51 48 47 42 41 36 28 22 17 14 13 13 22 29
33 40 46 50 52 40 33 33 35 35 36 32 35 32 27 20 18 34 45 56 37 56 66 67 59 65 71 69 56 49 46 44 43 42 36 28 21 19 15 15 11 14 26
31 37 42 48 38 36 33 39 43 41 36 30 28 28 16 12 17 31 47 48 52 56 67 72 70 74 72 70 68 56 51 45 41 38 35 31 27 24 21 16 11 14 16
29 34 40 36 34 34 37 36 36 40 34 24 28 25 5 5 13 27 56 49 47 52 58 58 74 81 74 71 72 60 43 47 41 37 30 32 29 25 20 17 18 21 18
24 30 37 29 29 31 39 39 31 31 31 34 32 19 6 7 9 23 41 54 41 53 63 56 73 69 84 70 61 65 52 26 50 38 41 35 29 23 19 22 20 15 11
17 24 31 26 27 31 37 35 31 35 34 35 32 16 10 11 15 32 42 22 63 76 57 49 63 62 80 81 72 59 44 71 50 27 37 37 30 28 29 28 21 15 10
12 16 27 29 23 25 29 29 28 28 30 32 38 37 38 36 39 51 40 54 48 67 66 52 63 84 68 82 69 67 39 63 55 66 50 46 38 32 29 25 20 14 12
9 14 20 24 20 23 23 28 23 26 27 25 28 33 28 34 37 43 46 44 52 60 45 35 53 61 68 71 70 73 62 68 61 64 55 49 39 33 29 23 19 16 11
Wind_Direction_850mb
220 229 243 267 300 298 284 275 277 281 279 266 264 259 254 251 257 247 238 236 238 231 205 198 208 207 219 202 198 183 188 188 174 171 163 168 187 191 195 195 202 185 180
218 245 260 256 274 283 285 279 279 274 274 273 262 261 253 251 249 253 240 234 233 234 229 222 220 208 204 199 222 232 240 219 188 175 171 193 205 224 209 203 206 192 161
297 297 297 284 277 277 274 277 277 274 268 267 265 258 258 252 250 247 246 238 228 229 234 236 238 243 238 232 230 234 229 211 198 197 198 218 233 174 159 168 159 155 147
269 287 298 299 293 287 281 279 277 277 270 264 258 258 255 253 249 247 245 238 231 228 234 236 232 229 230 235 226 214 215 210 206 206 207 219 197 159 152 144 144 151 149
288 301 301 298 297 296 293 288 282 276 272 266 263 260 254 249 248 245 242 241 232 229 230 229 229 215 224 230 239 201 205 207 210 211 214 209 191 168 159 153 159 162 159
294 300 302 304 303 302 298 290 282 277 276 276 272 265 262 255 245 243 240 238 232 229 224 228 222 222 214 220 218 212 213 209 196 197 192 186 178 166 158 157 159 152 153
302 307 308 310 312 310 305 300 293 288 283 276 272 266 262 257 258 244 238 236 232 228 225 220 215 222 213 219 227 213 230 189 166 168 168 166 164 151 155 155 156 158 157
305 311 318 324 326 322 320 318 313 307 295 280 271 265 260 258 252 256 243 236 232 229 224 214 215 214 212 225 209 213 190 167 168 169 166 162 152 166 166 151 146 149 154
311 321 327 329 319 315 315 312 306 299 294 290 283 271 263 258 255 256 253 241 234 228 224 217 212 208 214 226 209 215 184 172 170 170 167 164 169 163 165 164 156 151 150
314 320 322 314 317 318 316 313 309 308 304 296 287 282 272 261 256 253 254 249 236 227 223 218 214 212 214 223 211 196 179 174 171 170 172 170 174 176 164 155 149 151 148
302 310 313 316 319 321 316 316 317 312 308 302 289 283 282 269 256 251 250 249 234 225 221 217 214 209 214 220 206 187 180 176 173 175 178 182 189 186 170 165 158 148 153
293 312 319 319 322 319 320 320 320 317 314 305 294 284 274 272 262 248 246 245 244 223 219 215 213 206 202 201 193 187 182 179 177 177 181 184 178 183 191 185 169 168 159
305 319 319 320 320 322 324 323 321 318 317 312 303 296 278 269 262 253 244 238 236 224 215 212 215 201 202 195 195 186 182 181 179 177 178 172 181 176 178 189 185 176 172
307 316 319 319 320 323 323 324 322 320 318 317 314 307 293 275 262 254 243 234 232 225 218 218 217 180 191 192 193 183 180 179 176 173 165 172 178 175 173 178 174 170 162
307 316 318 320 322 325 327 328 322 321 322 318 313 310 301 288 264 246 236 219 225 225 213 208 209 178 186 185 186 182 177 174 172 167 163 179 183 167 164 160 150 145 153
308 316 318 321 325 326 330 328 324 323 325 323 321 312 297 289 283 243 225 214 210 219 201 196 200 183 183 180 178 173 169 168 167 162 165 178 168 138 135 133 128 137 133
310 317 320 323 326 327 328 325 324 325 321 318 319 321 303 288 289 235 217 206 204 208 200 199 194 186 170 168 169 161 159 163 163 164 177 174 155 139 123 123 121 121 119
310 315 321 326 326 328 326 322 320 319 319 307 309 312 311 287 287 220 208 193 178 186 193 175 179 178 164 161 156 154 155 156 162 174 176 174 158 139 127 119 114 118 118
307 316 322 328 330 330 331 329 325 330 331 326 313 299 296 284 281 208 197 189 167 173 176 171 174 166 160 161 155 153 154 157 163 168 175 171 159 146 137 145 142 135 124
308 317 326 333 337 347 343 335 345 346 344 335 328 321 295 266 254 204 191 191 146 168 177 168 170 169 163 160 159 153 151 158 162 168 169 167 162 157 167 182 189 192 162
310 319 330 340 351 351 347 354 359 358 354 348 338 343 296 242 228 201 188 201 147 167 172 172 176 166 155 159 162 152 150 158 161 159 163 172 168 169 181 182 195 199 212
312 328 337 348 354 353 356 1 359 0 360 345 353 2 352 183 199 187 179 185 163 163 180 186 181 160 161 163 162 151 132 138 149 161 167 176 174 176 182 191 177 189 192
315 339 347 359 359 359 1 5 13 9 5 7 12 13 49 115 188 186 184 177 185 176 183 189 181 189 163 168 179 168 148 138 129 143 145 164 169 177 182 176 159 173 188
329 353 358 1 354 355 12 29 13 22 24 27 24 31 72 119 140 143 156 124 156 182 189 176 189 180 168 168 170 176 174 162 154 141 142 150 163 163 162 163 164 178 185
338 351 5 7 353 2 26 37 26 35 54 38 71 65 81 96 111 134 143 164 159 159 156 153 183 174 171 173 174 164 156 178 179 154 147 151 154 156 167 160 165 171 183
331 340 358 6 10 23 41 45 35 43 69 76 75 85 89 109 132 153 158 156 165 159 165 169 169 178 186 180 184 186 184 183 187 179 161 158 163 161 169 167 177 180 196